This is the latest recevied weather packets stored in our database for station/object XE2CT-20. If no packets are shown the sender has not sent any weather packets the latest 10 day(s).
| Time | Temp. | Humidity | Pressure | Rain* | Wind** | Luminosity | Snow |
|---|---|---|---|---|---|---|---|
| 1778181487 | 34.44° C | 49% | 1009 hPa | - | - | - | - |
| 1778180586 | 35° C | 47% | 1008 hPa | - | - | - | - |
| 1778179685 | 34.44° C | 49% | 1009 hPa | - | - | - | - |
| 1778178784 | 33.89° C | 50% | 1010 hPa | - | - | - | - |
| 1778177882 | 34.44° C | 50% | 1010 hPa | - | - | - | - |
| 1778176981 | 33.33° C | 52% | 1011 hPa | - | - | - | - |
| 1778176080 | 32.78° C | 54% | 1012 hPa | - | - | - | - |
| 1778175179 | 32.78° C | 54% | 1012 hPa | - | - | - | - |
| 1778174278 | 32.22° C | 56% | 1013 hPa | - | - | - | - |
| 1778173377 | 32.22° C | 59% | 1014 hPa | - | - | - | - |
| 1778172476 | 31.11° C | 60% | 1015 hPa | - | - | - | - |
| 1778171575 | 30.56° C | 62% | 1016 hPa | - | - | - | - |
| 1778170674 | 30.56° C | 65% | 1018 hPa | - | - | - | - |
| 1778169773 | 30° C | 64% | 1017 hPa | - | - | - | - |
| 1778168872 | 30° C | 67% | 1018 hPa | - | - | - | - |
| 1778167971 | 30° C | 64% | 1017 hPa | - | - | - | - |
| 1778167070 | 30° C | 64% | 1017 hPa | - | - | - | - |
| 1778166169 | 30° C | 67% | 1018 hPa | - | - | - | - |
| 1778165268 | 30° C | 67% | 1018 hPa | - | - | - | - |
| 1778164367 | 30° C | 68% | 1018 hPa | - | - | - | - |
| 1778163466 | 29.44° C | 68% | 1018 hPa | - | - | - | - |
| 1778162564 | 29.44° C | 65% | 1017 hPa | - | - | - | - |
| 1778161663 | 29.44° C | 68% | 1018 hPa | - | - | - | - |
| 1778160762 | 29.44° C | 68% | 1018 hPa | - | - | - | - |
| 1778159861 | 29.44° C | 68% | 1017 hPa | - | - | - | - |
* Rain since midnight (hover to see other rain measurements)
** Current wind speed in m/s (hover to see current wind gust speed)